| time (UTC) | temp F | wind direction | speed MPH | gust MPH | rain 1hr in | rain 24hr in | rain mn in | humidity % | barometer mb |
| 20260503193004 | 61 | 253 | 4.0 | 14.0 | 0.00 | 0.00 | 0.00 | 35 | 1014.8 |
| 20260503192525 | 61 | 273 | 6.0 | 15.0 | 0.00 | 0.00 | 0.00 | 34 | 1014.9 |
| 20260503192004 | 61 | 291 | 6.0 | 15.0 | 0.00 | 0.00 | 0.00 | 34 | 1015.0 |
| 20260503191526 | 61 | 305 | 5.0 | 16.0 | 0.00 | 0.00 | 0.00 | 33 | 1015.1 |
| 20260503191026 | 61 | 312 | 5.0 | 16.0 | 0.00 | 0.00 | 0.00 | 33 | 1015.1 |
| 20260503190525 | 60 | 284 | 6.0 | 18.0 | 0.00 | 0.00 | 0.00 | 35 | 1015.2 |
| 20260503190026 | 60 | 261 | 7.0 | 18.0 | 0.00 | 0.00 | 0.00 | 34 | 1015.3 |
| 20260503185504 | 61 | 257 | 5.0 | 18.0 | 0.00 | 0.00 | 0.00 | 33 | 1015.3 |
| 20260503185005 | 61 | 258 | 4.0 | 12.0 | 0.00 | 0.00 | 0.00 | 35 | 1015.2 |
| 20260503184505 | 60 | 266 | 5.0 | 15.0 | 0.00 | 0.00 | 0.00 | 35 | 1015.4 |
| 20260503184005 | 60 | 308 | 5.0 | 15.0 | 0.00 | 0.00 | 0.00 | 34 | 1015.5 |
| 20260503183505 | 61 | 299 | 4.0 | 12.0 | 0.00 | 0.00 | 0.00 | 33 | 1015.6 |
| 20260503183005 | 60 | 298 | 5.0 | 11.0 | 0.00 | 0.00 | 0.00 | 37 | 1015.6 |
| 20260503182525 | 60 | 306 | 6.0 | 13.0 | 0.00 | 0.00 | 0.00 | 35 | 1015.8 |
| 20260503182025 | 60 | 289 | 6.0 | 16.0 | 0.00 | 0.00 | 0.00 | 35 | 1015.8 |
| 20260503181527 | 60 | 272 | 7.0 | 16.0 | 0.00 | 0.00 | 0.00 | 34 | 1015.5 |
| 20260503181004 | 61 | 277 | 4.0 | 17.0 | 0.00 | 0.00 | 0.00 | 34 | 1015.5 |
| 20260503180504 | 61 | 274 | 4.0 | 21.0 | 0.00 | 0.00 | 0.00 | 34 | 1015.6 |
| 20260503180025 | 60 | 283 | 5.0 | 21.0 | 0.00 | 0.00 | 0.00 | 36 | 1015.8 |
| 20260503175505 | 60 | 312 | 5.0 | 18.0 | 0.00 | 0.00 | 0.00 | 35 | 1015.7 |
| 20260503175004 | 60 | 332 | 5.0 | 18.0 | 0.00 | 0.00 | 0.00 | 34 | 1015.9 |
| 20260503174504 | 60 | 323 | 5.0 | 16.0 | 0.00 | 0.00 | 0.00 | 35 | 1015.8 |
| 20260503174025 | 60 | 282 | 5.0 | 16.0 | 0.00 | 0.00 | 0.00 | 34 | 1015.8 |
| 20260503173504 | 60 | 286 | 5.0 | 13.0 | 0.00 | 0.00 | 0.00 | 35 | 1015.7 |
| 20260503173027 | 59 | 307 | 6.0 | 16.0 | 0.00 | 0.00 | 0.00 | 35 | 1015.7 |
| 20260503172525 | 59 | 303 | 5.0 | 16.0 | 0.00 | 0.00 | 0.00 | 34 | 1015.8 |
| 20260503172005 | 59 | 301 | 4.0 | 13.0 | 0.00 | 0.00 | 0.00 | 35 | 1015.9 |
| 20260503171504 | 58 | 317 | 4.0 | 19.0 | 0.00 | 0.00 | 0.00 | 36 | 1015.9 |
| 20260503171027 | 58 | 311 | 5.0 | 19.0 | 0.00 | 0.00 | 0.00 | 35 | 1015.9 |
| 20260503170504 | 58 | 287 | 5.0 | 17.0 | 0.00 | 0.00 | 0.00 | 35 | 1016.2 |
| 20260503150525 | 55 | 320 | 4.0 | 11.0 | 0.00 | 0.00 | 0.00 | 37 | 1016.6 |
| 20260503131025 | 49 | 311 | 5.0 | 14.0 | 0.00 | 0.00 | 0.00 | 52 | 1016.9 |
| 20260503130525 | 49 | 301 | 4.0 | 14.0 | 0.00 | 0.00 | 0.00 | 52 | 1016.8 |
| 20260503110504 | 42 | 275 | 3.0 | 10.0 | 0.00 | 0.00 | 0.00 | 70 | 1015.7 |
| 20260503081525 | 42 | 248 | 2.0 | 4.0 | 0.00 | 0.00 | 0.00 | 75 | 1014.0 |
| 20260503081005 | 42 | 242 | 2.0 | 6.0 | 0.00 | 0.00 | 0.00 | 74 | 1014.0 |
| 20260503080525 | 42 | 249 | 1.0 | 6.0 | 0.00 | 0.00 | 0.00 | 74 | 1014.0 |
| 20260503072504 | 42 | 268 | 2.0 | 6.0 | 0.00 | 0.00 | 0.00 | 74 | 1013.6 |
| 20260503072025 | 42 | 261 | 2.0 | 5.0 | 0.00 | 0.00 | 0.00 | 74 | 1013.6 |
| 20260503071504 | 42 | 253 | 2.0 | 5.0 | 0.00 | 0.00 | 0.00 | 74 | 1013.5 |
| 20260503071025 | 42 | 249 | 2.0 | 5.0 | 0.00 | 0.00 | 0.00 | 74 | 1013.5 |
| 20260503070504 | 42 | 260 | 1.0 | 4.0 | 0.00 | 0.00 | 0.00 | 74 | 1013.4 |
| 20260503055004 | 45 | 293 | 1.0 | 4.0 | 0.00 | 0.00 | 0.00 | 67 | 1013.4 |
| 20260503054505 | 45 | 284 | 1.0 | 3.0 | 0.00 | 0.00 | 0.00 | 67 | 1013.4 |
| 20260503054004 | 46 | 265 | 1.0 | 3.0 | 0.00 | 0.00 | 0.00 | 66 | 1013.5 |
| 20260503053525 | 46 | 261 | 0.0 | 3.0 | 0.00 | 0.00 | 0.00 | 66 | 1013.4 |
| 20260503053004 | 46 | 288 | 0.0 | 3.0 | 0.00 | 0.00 | 0.00 | 65 | 1013.4 |
| 20260503052525 | 46 | 287 | 1.0 | 3.0 | 0.00 | 0.00 | 0.00 | 65 | 1013.4 |
| 20260503052004 | 47 | 284 | 1.0 | 3.0 | 0.00 | 0.00 | 0.00 | 64 | 1013.4 |
| 20260503051504 | 47 | 274 | 0.0 | 2.0 | 0.00 | 0.00 | 0.00 | 64 | 1013.3 |
| 20260503051027 | 47 | 280 | 0.0 | 2.0 | 0.00 | 0.00 | 0.00 | 64 | 1013.4 |
| 20260503050526 | 47 | 283 | 1.0 | 3.0 | 0.00 | 0.00 | 0.00 | 63 | 1013.3 |
| 20260503050025 | 48 | 293 | 1.0 | 4.0 | 0.00 | 0.00 | 0.00 | 63 | 1013.4 |
| 20260503045525 | 48 | 290 | 1.0 | 4.0 | 0.00 | 0.00 | 0.00 | 62 | 1013.4 |
| 20260503045005 | 48 | 277 | 1.0 | 7.0 | 0.00 | 0.00 | 0.00 | 62 | 1013.5 |
| 20260503044525 | 48 | 281 | 1.0 | 7.0 | 0.00 | 0.00 | 0.00 | 61 | 1013.5 |
| 20260503044025 | 48 | 311 | 1.0 | 6.0 | 0.00 | 0.00 | 0.00 | 61 | 1013.5 |
| 20260503043504 | 49 | 323 | 2.0 | 7.0 | 0.00 | 0.00 | 0.00 | 60 | 1013.5 |
| 20260503043005 | 49 | 323 | 2.0 | 7.0 | 0.00 | 0.00 | 0.00 | 59 | 1013.5 |
| 20260503042504 | 49 | 323 | 2.0 | 4.0 | 0.00 | 0.00 | 0.00 | 60 | 1013.6 |
| 20260503042004 | 49 | 321 | 2.0 | 5.0 | 0.00 | 0.00 | 0.00 | 59 | 1013.6 |
| 20260503041505 | 49 | 322 | 2.0 | 6.0 | 0.00 | 0.00 | 0.00 | 59 | 1013.5 |
| 20260503041004 | 50 | 319 | 1.0 | 6.0 | 0.00 | 0.00 | 0.00 | 58 | 1013.5 |
| 20260503040504 | 50 | 315 | 2.0 | 9.0 | 0.00 | 0.00 | 0.00 | 58 | 1013.5 |
| 20260503040005 | 50 | 315 | 4.0 | 14.0 | 0.00 | 0.00 | 0.00 | 57 | 1013.5 |
| 20260503035504 | 50 | 316 | 4.0 | 14.0 | 0.00 | 0.00 | 0.00 | 57 | 1013.4 |
| 20260503035004 | 50 | 324 | 3.0 | 12.0 | 0.00 | 0.00 | 0.00 | 57 | 1013.4 |
| 20260503034525 | 50 | 327 | 2.0 | 5.0 | 0.00 | 0.00 | 0.00 | 57 | 1013.5 |
| 20260503034025 | 50 | 324 | 2.0 | 6.0 | 0.00 | 0.00 | 0.00 | 56 | 1013.4 |
| 20260503033525 | 50 | 311 | 2.0 | 9.0 | 0.00 | 0.00 | 0.00 | 57 | 1013.4 |
| 20260503033004 | 51 | 313 | 2.0 | 9.0 | 0.00 | 0.00 | 0.00 | 56 | 1013.4 |
| 20260503032526 | 51 | 330 | 2.0 | 9.0 | 0.00 | 0.00 | 0.00 | 56 | 1013.4 |
| 20260503032025 | 51 | 327 | 2.0 | 9.0 | 0.00 | 0.00 | 0.00 | 56 | 1013.5 |
| 20260503031504 | 51 | 324 | 2.0 | 7.0 | 0.00 | 0.00 | 0.00 | 56 | 1013.3 |
| 20260503031004 | 51 | 322 | 2.0 | 7.0 | 0.00 | 0.00 | 0.00 | 55 | 1013.4 |
| 20260503030525 | 51 | 321 | 2.0 | 8.0 | 0.00 | 0.00 | 0.00 | 54 | 1013.4 |
| 20260503030004 | 51 | 329 | 2.0 | 8.0 | 0.00 | 0.00 | 0.00 | 54 | 1013.3 |
| 20260503025526 | 51 | 333 | 2.0 | 6.0 | 0.00 | 0.00 | 0.00 | 55 | 1013.2 |
| 20260503025025 | 51 | 335 | 2.0 | 6.0 | 0.00 | 0.00 | 0.00 | 54 | 1013.2 |
| 20260503024504 | 51 | 334 | 2.0 | 11.0 | 0.00 | 0.00 | 0.00 | 54 | 1013.3 |
| 20260503024005 | 51 | 331 | 2.0 | 11.0 | 0.00 | 0.00 | 0.00 | 55 | 1013.3 |
| 20260503023506 | 51 | 331 | 2.0 | 6.0 | 0.00 | 0.00 | 0.00 | 56 | 1013.4 |
| 20260503023025 | 51 | 305 | 1.0 | 4.0 | 0.00 | 0.00 | 0.00 | 58 | 1013.4 |
| 20260503022504 | 51 | 286 | 1.0 | 4.0 | 0.00 | 0.00 | 0.00 | 57 | 1013.4 |
| 20260503022004 | 51 | 294 | 0.0 | 3.0 | 0.00 | 0.00 | 0.00 | 57 | 1013.3 |
| 20260503021525 | 51 | 280 | 0.0 | 2.0 | 0.00 | 0.00 | 0.00 | 57 | 1013.3 |
| 20260503021025 | 51 | 283 | 0.0 | 2.0 | 0.00 | 0.00 | 0.00 | 56 | 1013.3 |
| 20260503020504 | 52 | 295 | 0.0 | 2.0 | 0.00 | 0.00 | 0.00 | 55 | 1013.3 |
| 20260503020025 | 52 | 308 | 0.0 | 2.0 | 0.00 | 0.00 | 0.00 | 54 | 1013.2 |
| 20260503015505 | 52 | 15 | 0.0 | 1.0 | 0.00 | 0.00 | 0.00 | 54 | 1013.3 |
| 20260503015025 | 52 | 15 | 0.0 | 1.0 | 0.00 | 0.00 | 0.00 | 54 | 1013.2 |
| 20260503014504 | 53 | 15 | 0.0 | 1.0 | 0.00 | 0.00 | 0.00 | 53 | 1013.2 |
| 20260503014004 | 53 | 15 | 0.0 | 1.0 | 0.00 | 0.00 | 0.00 | 52 | 1013.2 |
| 20260503013504 | 53 | 15 | 0.0 | 1.0 | 0.00 | 0.00 | 0.00 | 52 | 1013.1 |
| 20260503013004 | 53 | 9 | 0.0 | 2.0 | 0.00 | 0.00 | 0.00 | 51 | 1013.1 |
| 20260503012505 | 54 | 7 | 0.0 | 2.0 | 0.00 | 0.00 | 0.00 | 51 | 1013.1 |
| 20260503012005 | 54 | 333 | 0.0 | 1.0 | 0.00 | 0.00 | 0.00 | 51 | 1013.0 |
| 20260503011525 | 54 | 360 | 0.0 | 2.0 | 0.00 | 0.00 | 0.00 | 50 | 1013.0 |
| 20260503011025 | 54 | 339 | 1.0 | 3.0 | 0.00 | 0.00 | 0.00 | 50 | 1012.9 |
| 20260503010525 | 54 | 325 | 1.0 | 3.0 | 0.00 | 0.00 | 0.00 | 49 | 1012.9 |
| 20260503010025 | 54 | 331 | 1.0 | 2.0 | 0.00 | 0.00 | 0.00 | 49 | 1012.8 |
| 20260503005525 | 55 | 328 | 1.0 | 3.0 | 0.00 | 0.00 | 0.00 | 48 | 1012.7 |
| 20260503005004 | 55 | 328 | 1.0 | 5.0 | 0.00 | 0.00 | 0.00 | 48 | 1012.8 |
| 20260503004525 | 55 | 334 | 2.0 | 5.0 | 0.00 | 0.00 | 0.00 | 46 | 1012.6 |
| 20260503004025 | 55 | 329 | 2.0 | 5.0 | 0.00 | 0.00 | 0.00 | 46 | 1012.6 |
| 20260503003505 | 55 | 329 | 2.0 | 4.0 | 0.00 | 0.00 | 0.00 | 47 | 1012.5 |
| 20260503003025 | 55 | 322 | 2.0 | 4.0 | 0.00 | 0.00 | 0.00 | 46 | 1012.5 |
| 20260503002525 | 55 | 319 | 1.0 | 4.0 | 0.00 | 0.00 | 0.00 | 46 | 1012.4 |
| 20260503002026 | 56 | 346 | 1.0 | 6.0 | 0.00 | 0.00 | 0.00 | 47 | 1012.4 |
| 20260503001526 | 56 | 338 | 2.0 | 8.0 | 0.00 | 0.00 | 0.00 | 46 | 1012.2 |
| 20260503001025 | 56 | 330 | 2.0 | 8.0 | 0.00 | 0.00 | 0.00 | 45 | 1012.2 |
| 20260503000504 | 56 | 327 | 2.0 | 10.0 | 0.00 | 0.00 | 0.00 | 45 | 1012.2 |
| 20260503000004 | 56 | 329 | 2.0 | 10.0 | 0.00 | 0.00 | 0.00 | 44 | 1012.1 |
| 20260502235504 | 56 | 320 | 3.0 | 6.0 | 0.00 | 0.00 | 0.00 | 44 | 1012.0 |
| 20260502235025 | 56 | 317 | 2.0 | 7.0 | 0.00 | 0.00 | 0.00 | 45 | 1012.1 |
| 20260502234525 | 56 | 328 | 2.0 | 10.0 | 0.00 | 0.00 | 0.00 | 44 | 1012.0 |
| 20260502234025 | 56 | 328 | 3.0 | 10.0 | 0.00 | 0.00 | 0.00 | 43 | 1012.0 |
| 20260502233526 | 57 | 326 | 3.0 | 8.0 | 0.00 | 0.00 | 0.00 | 43 | 1011.9 |
| 20260502233025 | 57 | 330 | 2.0 | 6.0 | 0.00 | 0.00 | 0.00 | 43 | 1011.9 |
| 20260502232525 | 57 | 309 | 2.0 | 9.0 | 0.00 | 0.00 | 0.00 | 43 | 1011.8 |
| 20260502232004 | 57 | 311 | 2.0 | 9.0 | 0.00 | 0.00 | 0.00 | 43 | 1011.8 |
| 20260502231526 | 57 | 333 | 2.0 | 7.0 | 0.00 | 0.00 | 0.00 | 42 | 1011.7 |
| 20260502231004 | 58 | 322 | 2.0 | 7.0 | 0.00 | 0.00 | 0.00 | 42 | 1011.7 |
| 20260502230504 | 58 | 320 | 2.0 | 8.0 | 0.00 | 0.00 | 0.00 | 42 | 1011.7 |
| 20260502230004 | 58 | 314 | 3.0 | 8.0 | 0.00 | 0.00 | 0.00 | 41 | 1011.7 |
| 20260502225525 | 58 | 324 | 3.0 | 7.0 | 0.00 | 0.00 | 0.00 | 41 | 1011.6 |
| 20260502225026 | 58 | 329 | 3.0 | 10.0 | 0.00 | 0.00 | 0.00 | 40 | 1011.6 |
| 20260502224505 | 59 | 320 | 3.0 | 10.0 | 0.00 | 0.00 | 0.00 | 40 | 1011.6 |
| 20260502224004 | 59 | 321 | 3.0 | 8.0 | 0.00 | 0.00 | 0.00 | 40 | 1011.6 |
| 20260502223504 | 59 | 340 | 2.0 | 6.0 | 0.00 | 0.00 | 0.00 | 40 | 1011.6 |
| 20260502223025 | 59 | 328 | 2.0 | 7.0 | 0.00 | 0.00 | 0.00 | 40 | 1011.5 |
| 20260502222525 | 59 | 319 | 2.0 | 7.0 | 0.00 | 0.00 | 0.00 | 40 | 1011.6 |
| 20260502222004 | 59 | 320 | 3.0 | 10.0 | 0.00 | 0.00 | 0.00 | 39 | 1011.5 |
| 20260502221526 | 60 | 307 | 2.0 | 10.0 | 0.00 | 0.00 | 0.00 | 39 | 1011.6 |
| 20260502221025 | 60 | 287 | 2.0 | 6.0 | 0.00 | 0.00 | 0.00 | 38 | 1011.6 |
| 20260502220505 | 60 | 288 | 3.0 | 10.0 | 0.00 | 0.00 | 0.00 | 39 | 1011.6 |
| 20260502220025 | 61 | 296 | 4.0 | 13.0 | 0.00 | 0.00 | 0.00 | 37 | 1011.6 |
| 20260502215504 | 61 | 310 | 4.0 | 13.0 | 0.00 | 0.00 | 0.00 | 37 | 1011.5 |
| 20260502215004 | 61 | 313 | 3.0 | 11.0 | 0.00 | 0.00 | 0.00 | 37 | 1011.5 |
| 20260502214525 | 61 | 307 | 2.0 | 8.0 | 0.00 | 0.00 | 0.00 | 39 | 1011.5 |
| 20260502214004 | 61 | 312 | 2.0 | 6.0 | 0.00 | 0.00 | 0.00 | 40 | 1011.5 |
| 20260502213525 | 61 | 323 | 2.0 | 7.0 | 0.00 | 0.00 | 0.00 | 39 | 1011.5 |
| 20260502213025 | 61 | 315 | 2.0 | 7.0 | 0.00 | 0.00 | 0.00 | 38 | 1011.4 |
| 20260502212526 | 62 | 319 | 2.0 | 5.0 | 0.00 | 0.00 | 0.00 | 39 | 1011.4 |
| 20260502212005 | 62 | 331 | 1.0 | 4.0 | 0.00 | 0.00 | 0.00 | 38 | 1011.3 |
| 20260502211504 | 62 | 329 | 1.0 | 5.0 | 0.00 | 0.00 | 0.00 | 40 | 1011.4 |
| 20260502211025 | 62 | 336 | 2.0 | 9.0 | 0.00 | 0.00 | 0.00 | 39 | 1011.2 |
| 20260502210525 | 62 | 316 | 3.0 | 9.0 | 0.00 | 0.00 | 0.00 | 36 | 1011.2 |
| 20260502210025 | 62 | 321 | 3.0 | 9.0 | 0.00 | 0.00 | 0.00 | 38 | 1011.1 |
| 20260502205505 | 62 | 356 | 2.0 | 5.0 | 0.00 | 0.00 | 0.00 | 39 | 1011.1 |
| 20260502205025 | 62 | 340 | 2.0 | 5.0 | 0.00 | 0.00 | 0.00 | 38 | 1011.1 |
| 20260502204504 | 62 | 326 | 2.0 | 5.0 | 0.00 | 0.00 | 0.00 | 39 | 1011.1 |
| 20260502204025 | 62 | 328 | 1.0 | 3.0 | 0.00 | 0.00 | 0.00 | 38 | 1011.1 |
| 20260502203525 | 62 | 327 | 1.0 | 8.0 | 0.00 | 0.00 | 0.00 | 38 | 1011.2 |
| 20260502203005 | 62 | 329 | 2.0 | 8.0 | 0.00 | 0.00 | 0.00 | 37 | 1011.2 |
| 20260502202504 | 62 | 349 | 2.0 | 6.0 | 0.00 | 0.00 | 0.00 | 38 | 1011.2 |
| 20260502202025 | 62 | 336 | 2.0 | 7.0 | 0.00 | 0.00 | 0.00 | 39 | 1011.1 |
| 20260502201526 | 63 | 304 | 2.0 | 8.0 | 0.00 | 0.00 | 0.00 | 38 | 1011.2 |
| 20260502201004 | 63 | 327 | 3.0 | 12.0 | 0.00 | 0.00 | 0.00 | 38 | 1011.2 |
| 20260502200504 | 62 | 337 | 3.0 | 12.0 | 0.00 | 0.00 | 0.00 | 37 | 1011.2 |
| 20260502200004 | 63 | 348 | 2.0 | 9.0 | 0.00 | 0.00 | 0.00 | 38 | 1011.3 |
| 20260502195504 | 63 | 347 | 2.0 | 9.0 | 0.00 | 0.00 | 0.00 | 38 | 1011.3 |
| 20260502195004 | 63 | 298 | 3.0 | 9.0 | 0.00 | 0.00 | 0.00 | 37 | 1011.4 |
| 20260502194525 | 62 | 306 | 2.0 | 7.0 | 0.00 | 0.00 | 0.00 | 40 | 1011.4 |
| 20260502194004 | 61 | 303 | 3.0 | 8.0 | 0.00 | 0.00 | 0.00 | 38 | 1011.6 |
| 20260502193504 | 61 | 287 | 3.0 | 9.0 | 0.00 | 0.00 | 0.00 | 38 | 1011.8 |